Flag for Uruguay Weather past 2 weeks in Melo, Uruguay

Now
75 °F

Low clouds.


Feels Like: 73 °F
Forecast: 68 / 87 °F
Wind: 8 mph from Southwest

Location: Pelotas Airport

Current Time: Mar 5, 2015 at 10:22:52 AM

Latest Report: Mar 5, 2015 at 9:00 AM


Visibility: N/A

Pressure: 29.92 "Hg

Humidity: 100%

Dew point: 75 °F

Location of MeloLocation

Historic Weather in Melo — Graph

°F

Melo temperature yesterday

Maximum temperature yesterday: 90 °F (at 2:00 PM)
Minimum temperature yesterday: 73 °F (at 1:00 AM)
Average temperature yesterday: 79 °F

Past Weeks' High & Low Weather Summary

 TemperatureHumidityPressure
High91 °F (Mar 3, 1:00 PM)100% (Feb 18, 9:00 AM)30.12 "Hg (Feb 18, 9:00 AM)
Low61 °F (Feb 28, 5:00 AM)45% (Feb 27, 6:00 PM)29.65 "Hg (Feb 19, 1:00 PM)
Average76 °F88%29.91 "Hg
* Reported Feb 18 9:00 AM — Mar 5 9:00 AM, Melo, Weather by CustomWeather, © 2015

Note: Actual official high and low records may vary slightly from our data, if they occured in-between our weather recording intervals... More about our weather records

Advertising

Melo weather history for previous 24 hours

 ConditionsComfort  
Time TempWeatherWind HumidityBarometerVisibility
9:00 AM
Thu, Mar 5
75 °FLow clouds.8 mph100%29.92 "HgN/A
7:00 AM73 °FPassing clouds.5 mph100%29.86 "Hg5 mi
5:00 AM73 °FClear.2 mph100%29.83 "Hg5 mi
4:00 AM72 °FClear.1 mph100%29.83 "Hg5 mi
3:00 AM72 °FPassing clouds.No wind100%29.86 "Hg5 mi
2:00 AM73 °FPassing clouds.No wind100%29.86 "HgN/A
1:00 AM73 °FClear.2 mph100%29.89 "Hg10 mi
12:00 AM77 °FClear.No wind94%29.89 "Hg10 mi
11:00 PM
Wed, Mar 4
77 °FClear.3 mph94%29.89 "Hg10 mi
9:00 PM79 °FPassing clouds.2 mph100%29.86 "HgN/A
8:00 PM81 °FPassing clouds.2 mph100%29.83 "HgN/A
7:00 PM82 °FClear.3 mph94%29.83 "Hg10 mi
6:00 PM84 °FSunny.5 mph84%29.83 "Hg10 mi
5:00 PM82 °FSunny.6 mph89%29.83 "Hg10 mi
3:00 PM88 °FSunny.No wind66%29.86 "Hg10 mi
2:00 PM90 °FSunny.3 mph63%29.86 "Hg10 mi
1:00 PM86 °FSunny.5 mph66%29.86 "Hg10 mi
12:00 PM84 °FSunny.5 mph70%29.89 "Hg10 mi
11:00 AM82 °FSunny.5 mph79%29.89 "Hg10 mi
10:00 AM77 °FPassing clouds.3 mph100%29.89 "HgN/A
Weather by CustomWeather, © 2015

See weather overviewHow to use our weather pages